Weather History for Reno, NV

Change the Weather History Date:

Monday, December 17, 2012

  Actual Average Record
Temperature  
Mean Temperature 41 °F 35 °F  
Max Temperature 50 °F 45 °F 65 °F (1939)
Min Temperature 32 °F 25 °F 5 °F (1965)
Degree Days  
Heating Degree Days 24 30  
Month to date heating degree days 408 493  
Since 1 July heating degree days 1207 1596  
Cooling Degree Days 0 0  
Month to date cooling degree days 0 0  
Year to date cooling degree days 1272 839  
Moisture  
Dew Point 30 °F    
Average Humidity 58    
Maximum Humidity 70    
Minimum Humidity 45    
Precipitation  
Precipitation 0.02 in 0.03 in 0.77 in (1977)
Month to date precipitation 1.00 0.51  
Year to date precipitation 4.66 6.88  
Snow  
Snow 0.00 in 0.20 in 5.30 in (2010)
Month to date snowfall 0.4 2.0  
Since 1 July snowfall 1.2 5.5  
Snow Depth 0.00 in    
Sea Level Pressure  
Sea Level Pressure 29.82 in    
Wind  
Wind Speed 13 mph (WSW)    
Max Wind Speed 35 mph    
Max Gust Speed 43 mph    
Visibility 10 miles    
Events Rain    
T = Trace of Precipitation, MM = Missing Value Source: NWS Daily Summary

Daily Weather History Graph

Daily Weather History Graph

Search for Another Location

Airport:

Trip Planner

Search our weather history database for the weather conditions in past years. The results will help you decide how hot, cold, wet, or windy it might be!

Date:

Astronomy

Dec. 17, 2012 Rise Set
Actual Time 7:13 AM PST 4:37 PM PST
Civil Twilight 6:43 AM PST 5:07 PM PST
Nautical Twilight 6:09 AM PST 5:41 PM PST
Astronomical Twilight 5:37 AM PST 6:13 PM PST
Moon 10:26 AM PST (12/17) 10:02 PM PST (12/17)
Length of Visible Light 10h 23m
Length of Day
9h 23m
Waxing Crescent, 26% of the Moon is Illuminated
Dec 17
Waxing Crescent
Dec 19
First Quarter
Dec 28
Full
Jan 4
Last Quarter
Jan 11
New

Hourly Weather History & Observations

Time (PST) Temp. Windchill Dew Point Humidity Pressure Visibility Wind Dir Wind Speed Gust Speed Precip Events Conditions
12:55 AM 48.9 °F - 28.9 °F 46% 29.74 in 10.0 mi WSW 17.3 mph 35.7 mph N/A   Clear
1:55 AM 48.9 °F - 30.0 °F 48% 29.75 in 10.0 mi WSW 19.6 mph 28.8 mph N/A   Partly Cloudy
2:55 AM 46.9 °F - 30.9 °F 54% 29.75 in 10.0 mi SW 16.1 mph 32.2 mph N/A   Scattered Clouds
3:55 AM 44.1 °F 36.2 °F 33.1 °F 65% 29.75 in 10.0 mi SSW 18.4 mph - N/A   Scattered Clouds
4:55 AM 45.0 °F 37.9 °F 33.1 °F 63% 29.75 in 10.0 mi South 16.1 mph - N/A   Scattered Clouds
5:55 AM 46.0 °F 39.9 °F 30.0 °F 54% 29.76 in 10.0 mi South 13.8 mph 26.5 mph N/A   Scattered Clouds
6:55 AM 46.9 °F - 28.9 °F 50% 29.77 in 10.0 mi SW 10.4 mph 18.4 mph N/A   Mostly Cloudy
7:55 AM 44.1 °F 39.5 °F 35.1 °F 71% 29.79 in 10.0 mi WSW 8.1 mph - 0.00 in Rain Light Rain
8:55 AM 45.0 °F 38.9 °F 36.0 °F 71% 29.81 in 10.0 mi SSW 12.7 mph - 0.00 in   Mostly Cloudy
9:55 AM 48.9 °F - 35.1 °F 59% 29.81 in 10.0 mi West 10.4 mph - 0.00 in   Mostly Cloudy
10:55 AM 46.9 °F - 36.0 °F 66% 29.83 in 10.0 mi West 17.3 mph 27.6 mph 0.00 in Rain Light Rain
11:31 AM 44.6 °F 38.1 °F 35.6 °F 71% 29.88 in 6.0 mi WSW 13.8 mph 24.2 mph 0.01 in Rain Rain
11:36 AM 44.6 °F 38.4 °F 37.4 °F 76% 29.87 in 6.0 mi WSW 12.7 mph 20.7 mph 0.01 in Rain Light Rain
11:55 AM 45.0 °F 35.8 °F 35.1 °F 68% 29.81 in 4.0 mi West 26.5 mph 39.1 mph 0.01 in Rain Rain
12:55 PM 46.0 °F 38.5 °F 37.0 °F 71% 29.80 in 10.0 mi West 19.6 mph 27.6 mph 0.01 in   Mostly Cloudy
1:55 PM 48.0 °F - 30.0 °F 50% 29.80 in 10.0 mi West 16.1 mph 24.2 mph N/A   Mostly Cloudy
4:55 PM 42.1 °F 35.2 °F 23.0 °F 47% 29.85 in 10.0 mi WNW 12.7 mph - N/A   Scattered Clouds
5:55 PM 39.9 °F 33.9 °F 25.0 °F 55% 29.86 in 10.0 mi NW 9.2 mph - N/A   Partly Cloudy
6:55 PM 37.0 °F 30.4 °F 27.0 °F 67% 29.87 in 10.0 mi ENE 9.2 mph - N/A   Partly Cloudy
7:55 PM 37.9 °F 33.5 °F 24.1 °F 57% 29.88 in 10.0 mi North 5.8 mph - N/A   Partly Cloudy
8:55 PM 36.0 °F 30.3 °F 24.1 °F 62% 29.88 in 10.0 mi North 6.9 mph - N/A   Partly Cloudy
9:55 PM 36.0 °F 29.6 °F 23.0 °F 59% 29.86 in 10.0 mi NW 8.1 mph - N/A   Partly Cloudy
10:55 PM 33.1 °F 28.7 °F 24.1 °F 70% 29.88 in 10.0 mi East 4.6 mph - N/A   Scattered Clouds
11:55 PM 34.0 °F 28.0 °F 23.0 °F 64% 29.87 in 10.0 mi East 6.9 mph - N/A   Scattered Clouds